Regional Weather Roundup
Issued by NWS Wakefield, VA

Home | Current Version | Previous Version | Text Only | Print | Product List | Glossary On
Versions: 1 2 3 4 5 6 7 8 9 10 11 12 13 14 15 16 17 18 19 20 21 22 23 24 25 26 27
000
ASUS41 KAKQ 131815
RWRAKQ

REGIONAL WEATHER ROUNDUP
NATIONAL WEATHER SERVICE WAKEFIELD VA
100 PM EST WED DEC 13 2017

Note: "fair" indicates few or no clouds below 12,000 feet with no
significant weather and/or obstructions to visibility. * = Denotes
station may not report precipitation (e.g., rain,snow,etc.),
thunder or fog.

VAZ042-051-052>054-056-131900-
NORTHERN VIRGINIA

CITY           SKY/WX    TMP DP  RH WIND       PRES   REMARKS
WASH NATIONAL  MOSUNNY   33   6  32 NW16G24   29.80F WCI  23
DULLES         MOSUNNY   32   8  36 W12G20    29.79F WCI  23
FORT BELVOIR   SUNNY     33   4  29 W12G20    29.80F WCI  24
QUANTICO       MOSUNNY   34   6  31 W13G23    29.83F WCI  25
FREDERICKSBRG* SUNNY     33  10  37 W9        29.82F
STAFFORD*      SUNNY     32   6  32 SW7G18    29.85F
WARRENTON      SUNNY     35   1  23 SW8       29.80F
CULPEPER*      SUNNY     33   3  27 SW10G16   29.82F
MANASSAS*      SUNNY     33   7  33 W13G18    29.81  WCI  24
LEESBURG*      SUNNY     32  12  43 W13       29.79F WCI  22
WINCHESTER     MOSUNNY   30   9  40 W8G20     29.77S
FRONT ROYAL*   CLEAR     32   7  34 MISG      29.76F
LURAY*         CLEAR     32   7  34 SW6G17    29.76F
$$

VAZ048-049-060>072-079>083-131900-
CENTRAL AND SOUTH CENTRAL VIRGINIA

CITY           SKY/WX    TMP DP  RH WIND       PRES   REMARKS
RICHMOND       PTSUNNY   37   6  27 W17G25    29.85F
CHESTERFIELD*  NOT AVBL
PETERSBURG*    SUNNY     36   3  25 W17       29.88F
HANOVER        SUNNY     33   5  30 W12G22    29.86F WCI  24
TAPPAHANNOCK*  SUNNY     35  10  35 SW14G21   29.84F
QUINTON*       FAIR      33   8  34 W10G17    29.86S WCI  25
CHARLOTTSVILLE SUNNY     34   5  29 SW6G22    29.80F
GORDONSVILLE*  CLEAR     32   5  31 SW8G18    29.80F
ORANGE*        SUNNY     32   7  34 CALM      29.81F
LOUISA*        SUNNY     32   3  29 W7        29.85F
BUMPASS*       FAIR      32   2  27 SW9G22    29.82F
FARMVILLE*     SUNNY     36   8  30 SW10G17   29.84F
CREWE*         FAIR      33   6  31 SW10G16   29.86F WCI  25
FORT PICKETT*  NOT AVBL
CHASE CITY*    FAIR      34   6  30 SW6       29.88F
CLARKSVILLE*   FAIR      36   9  32 W10G20    29.89F
SOUTH HILL*    SUNNY     34   6  30 W9        29.94F
LAWRENCEVILLE* FAIR      36   3  25 SW10      29.88F
EMPORIA*       SUNNY     34   5  29 SW10G17   29.91F
$$

VAZ088>098-131900-
SOUTHEAST VIRGINIA

CITY           SKY/WX    TMP DP  RH WIND       PRES   REMARKS
NORFOLK        SUNNY     35   8  32 W9G22     29.86F
VIRGINIA BEACH MOSUNNY   35   6  29 W15G25    29.85F
NORFOLK NAVAL  MOSUNNY   36   9  32 W22G28    29.88F WCI  25
WEST POINT*    SUNNY    N/A N/A N/A W15G24    29.87F
SALUDA*        FAIR      33   7  33 W3G17     29.85S
NEWPORT NEWS   SUNNY     35   9  33 W16G23    29.86F
LANGLEY AFB    SUNNY     35  10  35 W18G25    29.85F WCI  24
FORT EUSTIS    SUNNY     35   9  33 W14G21    29.84F
WILLIAMSBURG*  SUNNY     37  10  32 W17G24    29.87F
HR EXEC AP*    FAIR      36   9  32 W14G21    29.89S
FRANKLIN*      SUNNY     35   6  29 W16G22    29.89F
US460-WAKEFLD  SUNNY     35   8  32 W12       29.88F
$$

VAZ020-022-025-037-045-131900-
WEST CENTRAL AND SOUTHWEST VIRGINIA

CITY           SKY/WX    TMP DP  RH WIND       PRES   REMARKS
STAUNTON*      SUNNY     31   5  33 SW9       29.77F
WAYNESBORO*    CLEAR     30   4  33 SW13G20   29.76S WCI  20
HOT SPRINGS VA MOSUNNY   21   2  42 W16G24    29.62F WCI   7
LYNCHBURG      SUNNY     33   2  26 SW12G20   29.83F WCI  24
DANVILLE       SUNNY     37   8  30 W12       29.88F
SOUTH BOSTON*  FAIR      36   3  24 W10G16    29.89F
MARTINSVILLE   SUNNY     36   5  27 SW10G17   29.89F
ROANOKE        MOSUNNY   34   5  29 SW12G22   29.83F
BLACKSBURG     SUNNY     31  10  40 W6        29.81F
DUBLIN*        SUNNY     34  13  43 W13       29.80F WCI  25
MARION*        SUNNY     31   4  32 W18       29.80F WCI  19
HILLSVILLE*    SUNNY     31  10  41 W13       29.76F WCI  21
RICHLANDS*     FAIR      29   6  37 SW5       29.77F
WISE*          SUNNY     32  12  43 S9        29.78F
ABINGDON*      SUNNY     32   8  36 W15       29.83F WCI  22
$$

MDZ021>025-VAZ099-100-131900-
SOUTHERN MARYLAND AND THE DELMARVA PENINSULA

CITY           SKY/WX    TMP DP  RH WIND       PRES   REMARKS
PATUXENT RIVER MOSUNNY   33   5  30 W22G30    29.81F WCI  21
BAY BRIDGE APT SUNNY     30   7  37 MISG      29.79F
LEONARDTOWN    SUNNY     32   7  34 W13G23    29.82F WCI  22
DOVER          MOSUNNY   30   4  33 W20G28    29.74S WCI  18
GEORGETOWN     SUNNY     30   3  31 W15G28    29.78S WCI  19
EASTON         MOSUNNY   32   3  29 W17G24    29.82F WCI  21
CAMBRIDGE      SUNNY     30   5  34 W17G26    29.80F WCI  18
SALISBURY      SUNNY     30   8  39 W22G31    29.79F WCI  17
OCEAN CITY     SUNNY     30   7  37 W18G31    29.79F WCI  18
WALLOPS ISLAND PTSUNNY   32  11  41 W17G28    29.82S WCI  21
ACCOMACK*      MOSUNNY   33  11  41 W16G25    29.84R WCI  22
$$

NCZ012>017-030>032-131900-
NORTH CENTRAL AND EASTERN NORTH CAROLINA

CITY           SKY/WX    TMP DP  RH WIND       PRES   REMARKS
ROANOKE RAPIDS FAIR      36   7  30 W9        29.91F
RALEIGH        PTSUNNY   38   4  24 W12       29.92F
ELIZABETH CITY MOSUNNY   37  12  35 W14G26    29.88F
AHOSKIE*       SUNNY     35   5  28 W5        29.91F
EDENTON*       MOSUNNY   39  10  29 W12G22    29.90F
CURRITUCK*     MOSUNNY   35   9  33 W14G22    29.88F
KILL DEVIL HLS MOSUNNY   34  12  39 W12G21    29.86F
MANTEO         MOSUNNY   35  14  41 NW13G18   29.88F
CAPE HATTERAS  SUNNY     38  15  39 W10G20    29.90F
TARBORO*       NOT AVBL
GOLDSBORO      SUNNY     42   6  22 W13G22    29.92F
WASHINGTON     SUNNY     38   7  27 W7G18     29.91F
GREENVILLE     SUNNY     37   7  28 W8G17     29.94F
NEW BERN       SUNNY     40   9  28 W12G18    29.93F
WILMINGTON     SUNNY     45   9  23 NW13      29.96F
$$

VAZ048-131900-
ELSEWHERE

CITY           SKY/WX    TMP DP  RH WIND       PRES   REMARKS
HARRISBURG PA  MOSUNNY   29   6  38 NW22G29   29.72S WCI  15
BALTIMORE      MOSUNNY   30   3  31 W18       29.77F WCI  18
ANNAPOLIS      SUNNY     30   5  34 W12G24    29.78F WCI  20
ANDREWS AFB    SUNNY     31   4  32 W16G24    29.77F WCI  20
PHILADELPHIA   MOSUNNY   31   4  31 W26G35    29.70R WCI  17
GREENSBORO     PTSUNNY   38   8  29 SW13      29.88F
ROCKY MOUNT    SUNNY     38   7  27 W14G20    29.92F
$$

VAZ100-131900-
MARINE

STATION/POSITION TIME  TEMP    WIND        PRES    WAVE   SWELL
                       AIR SEA DIR/SP/G            HT/PER HT/PER
                 (UTC) (F)     (DEG/KT/KT) (MB)    (FT/S) (FT/S)
BRANDYWINE LGT   1736   28     300/ 26/ 36 1007.4S
CAPE MAY NJ      1736   28 37  290/ 28/ 34 1006.5F
LEWES DE         1736   29 43  280/ 19/ 25 1007.6R
15NM E FENWICK I 1750   30 54  270/ 25/ 33 1007.5F   7/ 6
OCEAN-CITY-INLET 1736   28 41  300/ 16/ 21 1008.8F
WACHAPREAGUE VA  1736   33 37  260/  7/ 18 1010.3S
THOMAS POINT MD  1800   29 43  280/ 23/ 26   N/A
GOOSES REEF MD   1800   32 46  270/ 17/ 23 1009.5    2/ 3
COVE POINT MD    1736   29     300/ 12/ 17 1010.2F
SOLOMONS ISLAND  1736   30 45  270/ 14/ 20 1009.3F
BISHOPS HEAD MD  1736   29 32  290/ 19/ 20 1010.3F
PINEY POINT MD   1742          310/ 22/ 25   N/A
POTOMAC MD       1800   32 47  270/ 16/ 21 1009.2    2/ 3
CAMBRIDGE MD     1736   31 42              1010.0F
LEWISETTA VA     1736   31 42  270/ 13/ 18 1010.2F
RAPPAHANNOCK LGT 1742          270/ 17/ 23 1011.0F
STINGRAY PT      1750   33     310/ 19/ 23 1010.6F
YORK RVR RNG VA  1742   33     290/ 21/ 31 1011.2F
YORKTOWN VA      1742   33 48  270/ 20/ 24 1010.7F
JAMESTOWN VA     1800      46  280/ 16/ 21   N/A     1/ 2
DOMINION TERM VA 1742   33     280/ 18/ 24 1011.5F
KIPTOPEKE VA     1742      42  290/ 22/ 27   N/A
CAPE HENRY VA    1742   32     260/ 15/ 24   N/A
WILLOUBY STN VA  1742          280/ 19/ 23 1010.5F
S CRANEY ISL VA  1742   34     250/ 15/ 20 1011.1F
CAPE HENRY BUOY  1800      53                N/A     4/ 4
1ST LANDING BUOY 1800   33 49  290/ 21/ 27 1010.8    3/ 3
CAPE CHARLES BUO 1751      51                N/A     3/ 4
64NM E OF VA BCH 1750   34 58  290/ 23/ 29 1010.2    8/ 7
DUCK PIER NC     1742   34 54  280/ 16/ 19 1011.1F
44100 DUCK FRF   1745      55                N/A     4/ 5
44056 DUCK FRF   1800      56                N/A     4/ 7
OREGON INLET NC  1742   34 44  280/ 12/ 17 1011.6F
HATTERAS NC      1742   35 49  290/ 15/ 18 1011.9F
DIAMOND SHLS NC  1750   38 75  300/ 19/ 27 1012.4F   7/ 8   2/15
CAPE LOOKOUT NC  1800          290/ 13/ 16 1013.6F
$$




USA.gov is the U.S. government's official web portal to all federal, state and local government web resources and services.